Current Weather Conditions: station 63108

sailwx.info

Wind from 190 at 21 knots

Wave height 2.8 meters (9 feet), 6 second period

Air temperature 5.1° C
Visibility: greater than 27.0 NM
Dewpoint -0.8° C

Last reported at 2018-Feb-24 13:00 UTC.
Time now 2018-Feb-24 14:24 UTC

Location: N 60°48' E 001°42'.
View on Google Maps.

See reports from other nearby stations

  
Tides and Currents Weather Stations Pressure Air Temp Water Temp Dewpoint Dewpoint Depression Visibility Wind Speed Wind Dir Waves Ship Positions
date/time (UTC)wind fromknots sea level pressurealtimeterstation pressurevisibilityair tempwater tempwave heightnotes
2018-Feb-24 13:00 190 21 27.0 5.1 2.8
2018-Feb-24 12:00 190 21 27.0 5.1 2.9
2018-Feb-24 11:00 190 24 27.0 4.9 3.0
2018-Feb-24 10:00 190 24 27.0 5.1 2.7
2018-Feb-24 09:00 190 26 27.0 5.1 2.8
2018-Feb-24 08:00 190 22 27.0 5.1 2.5
2018-Feb-24 07:00 190 22 27.0 5.1 2.6
2018-Feb-24 06:00 200 20 27.0 4.9 2.6
2018-Feb-24 05:00 180 20 27.0 5.3 2.5
2018-Feb-24 04:00 190 21 27.0 4.9 2.5
2018-Feb-24 03:00 180 19 27.0 5.4 2.3
2018-Feb-24 02:00 190 19 27.0 5.4 2.3
2018-Feb-24 01:00
2018-Feb-24 00:00
2018-Feb-23 23:00 190 14 27.0 5.1 2.6
2018-Feb-23 22:00 200 17 27.0 5.5 2.5
2018-Feb-23 21:00 200 20 27.0 5.4 2.5
2018-Feb-23 20:00 200 20 27.0 5.4 2.5
2018-Feb-23 19:00 200 20 27.0 5.3 2.4
2018-Feb-23 18:00 200 21 27.0 5.4 2.4
2018-Feb-23 17:00 200 20 27.0 5.4 2.3
2018-Feb-23 16:00 200 20 27.0 5.4 2.2
2018-Feb-23 15:00 190 19 10.8 5.4 2.3
2018-Feb-23 14:00 200 18 27.0 5.5 2.4
2018-Feb-23 13:00 210 18 27.0 5.5 2.4
2018-Feb-23 12:00 200 19 27.0 5.5 2.4
2018-Feb-23 11:00 200 19 27.0 5.6 2.4
2018-Feb-23 10:00 200 20 27.0 5.4 2.7
2018-Feb-23 09:00 200 20 27.0 5.4 2.5
2018-Feb-23 08:00 200 18 27.0 5.5 2.8
2018-Feb-23 07:00 200 19 27.0 5.5 2.7
2018-Feb-23 06:00 200 19 27.0 5.4 2.8
2018-Feb-23 05:00 210 20 27.0 5.5 2.9
2018-Feb-23 04:00 190 18 27.0 5.0 2.8
2018-Feb-23 03:00 190 15 27.0 4.8 2.7
2018-Feb-23 02:00 190 19 27.0 4.9 2.8
2018-Feb-23 01:00 190 24 10.8 4.9 2.7
2018-Feb-23 00:00 190 20 27.0 5.0 2.6
2018-Feb-22 23:00 190 20 27.0 5.0 2.5
2018-Feb-22 22:00 190 19 27.0 4.8 2.6
2018-Feb-22 21:00 190 20 27.0 5.1 2.5
2018-Feb-22 20:00 190 21 27.0 5.1 2.4
2018-Feb-22 19:00 190 20 10.8 4.8 2.2
2018-Feb-22 18:00 180 20 27.0 5.2 2.3
2018-Feb-22 17:00 190 19 27.0 5.0 2.3
2018-Feb-22 16:00 200 19 27.0 5.2 2.1
2018-Feb-22 15:00 190 20 27.0 5.4 2.1
2018-Feb-22 14:00 190 20 27.0 5.4 1.8